Hauptseite
METAR-TAF:

METAR-TAF

Flughäfen :

Flughafen Braunschweig-Wolfsburg

Braunschweig, Deutschland

Breite: 52-18N, Länge: 010-27E, Höhe: 81 m

Beobachtung

Neuester Wetterbericht von vor 3 Stunden und 9 Minuten, um 20:50 UTC
Wind 1 kt aus Ost
Temperatur -5°C
Luftfeuchtigkeit 79%
Luftdruck 1003 hPa
Sichtweite 10 km oder mehr
keine Wolken unter 1500 m und keine Kumulonimbus oder Gewitterwolken

METAR: EDVE 222050Z 10001KT CAVOK M05/M08 Q1003

Zeit: 00:59 (23:59 UTC)

Prognose

Neuester Wetterbericht von vor 6 Stunden und 59 Minuten, um 17:00 UTC
Gültige Prognose vom 22 um 18 UTC bis 22 um 21 UTC
Wind 5 kt aus Ost/Südost
Sichtweite 10 km oder mehr
keine Wolken unter 1500 m und keine Kumulonimbus oder Gewitterwolken

TAF: EDVE 221700Z 2218/2221 11005KT CAVOK

Wetterbeobachtungen und Prognosen von mehr als 4000 Flughäfen (METAR und TAF Bericht).

Die verfügbaren Stationen werden durch gelbe und rote Markierungen auf der Karte dargestellt.

Führen Sie die Maus auf sie, um den Namen der Station zu sehen.

Darauf klicken, um die Beobachtung von Wetterbeobachtungen und Prognosen zu sehen.

Um die Karte zu ändern : klicken Sie auf den grünen Tasten mit einem schwarzen Kreuz Zum Vergrößern, auf den grünen Button mit einem Gedankenstrich zu verkleinern, oder auf die grünen Pfeile für benachbarte Karten.


METAR-TAF: